Home   Weather   Nottingham   Past weeks

Flag for United Kingdom Past Weather in Nottingham, England, United Kingdom — Yesterday and Last 2 Weeks

Now
52 °F

Light rain. Clear.


Feels Like: 48 °F
Forecast: 46 / 53 °F
Wind: 10 mph from Southwest

Location: East Midlands

Current Time: Dec 10, 2016 at 3:19:56 am

Latest Report: Dec 10, 2016 at 2:50 am


Visibility: N/A

Pressure: 30.12 "Hg

Humidity: 94%

Dew Point: 50 °F

Location of NottinghamLocation

Past Weather in Nottingham — Graph

°F

Nottingham Temperature Yesterday

Maximum temperature yesterday: 55 °F (at 6:20 am)
Minimum temperature yesterday: 50 °F (at 12:20 am)
Average temperature yesterday: 54 °F

High & Low Weather Summary for the Past Weeks

 TemperatureHumidityPressure
High57 °F (Dec 8, 11:20 am)100% (Nov 25, 10:50 pm)30.57 "Hg (Nov 25, 10:50 pm)
Low27 °F (Nov 29, 5:50 am)53% (Nov 28, 12:50 pm)30.09 "Hg (Dec 8, 12:20 pm)
Average42 °F89%30.31 "Hg
* Reported Nov 25 2:20 am — Dec 10 2:20 am, Nottingham, Weather by CustomWeather, © 2016

Note: Actual official high and low records may vary slightly from our data, if they occured in-between our weather recording intervals... More about our weather records

Advertising

Nottingham Weather History for the Previous 24 Hours

Scroll right to see more
 ConditionsComfort  
Time TempWeatherWind HumidityBarometerVisibility
2:20 am
Sat, Dec 10
52 °FClear.12 mph94%30.12 "Hg10 mi
1:50 am52 °FLight rain. Passing clouds.12 mph94%30.12 "HgN/A
1:20 am52 °FLight rain. Passing clouds.9 mph94%30.12 "Hg5 mi
12:50 am52 °FLight rain. Partly cloudy.10 mph94%30.12 "Hg6 mi
12:20 am52 °FLight rain. Overcast.8 mph100%30.12 "Hg6 mi
11:50 pm
Fri, Dec 9
52 °FPartly cloudy.8 mph100%30.12 "HgN/A
11:20 pm52 °FPartly cloudy.9 mph94%30.15 "HgN/A
10:50 pm52 °FPassing clouds.8 mph100%30.12 "HgN/A
10:20 pm52 °FLight rain. Passing clouds.10 mph94%30.12 "Hg4 mi
9:50 pm54 °FLight rain. Passing clouds.14 mph88%30.15 "Hg4 mi
9:20 pm54 °FLight rain. Passing clouds.17 mph88%30.12 "HgN/A
8:50 pm55 °FPassing clouds.17 mph82%30.12 "HgN/A
8:20 pm55 °FPassing clouds.17 mph82%30.12 "HgN/A
7:50 pm55 °FPassing clouds.16 mph82%30.12 "HgN/A
7:20 pm55 °FPassing clouds.14 mph82%30.12 "HgN/A
6:50 pm55 °FClear.15 mph77%30.12 "Hg10 mi
6:20 pm55 °FClear.16 mph77%30.12 "Hg10 mi
5:50 pm55 °FClear.18 mph82%30.12 "Hg10 mi
5:20 pm55 °FClear.18 mph82%30.12 "Hg10 mi
4:50 pm55 °FClear.14 mph82%30.12 "Hg10 mi
4:20 pm55 °FClear.16 mph82%30.12 "Hg10 mi
3:50 pm55 °FClear.18 mph82%30.12 "Hg10 mi
3:20 pm55 °FSunny.21 mph82%30.12 "Hg10 mi
2:50 pm55 °FSunny.20 mph82%30.12 "Hg10 mi
2:20 pm55 °FSunny.21 mph82%30.12 "Hg10 mi
1:50 pm55 °FPassing clouds.21 mph82%30.12 "HgN/A
1:20 pm55 °FPassing clouds.22 mph82%30.15 "HgN/A
12:50 pm55 °FPassing clouds.18 mph82%30.15 "HgN/A
12:20 pm55 °FPassing clouds.17 mph82%30.15 "HgN/A
11:50 am55 °FPassing clouds.17 mph82%30.15 "HgN/A
11:20 am55 °FPassing clouds.15 mph82%30.18 "HgN/A
10:50 am55 °FScattered clouds.16 mph82%30.18 "HgN/A
10:20 am54 °FScattered clouds.14 mph94%30.18 "HgN/A
9:50 am54 °FPartly sunny.12 mph94%30.18 "HgN/A
9:20 am54 °FScattered clouds.13 mph94%30.18 "HgN/A
8:50 am54 °FScattered clouds.16 mph94%30.18 "HgN/A
7:20 am55 °FPassing clouds.15 mph88%30.18 "HgN/A
6:20 am55 °FPassing clouds.10 mph88%30.18 "HgN/A
5:50 am54 °FPassing clouds.12 mph100%30.18 "HgN/A
5:20 am54 °FPassing clouds.13 mph100%30.18 "HgN/A
4:20 am54 °FPassing clouds.10 mph94%30.21 "Hg4 mi
3:50 am54 °FPartly cloudy.10 mph94%30.21 "Hg4 mi
3:20 am52 °FPassing clouds.7 mph100%30.21 "Hg4 mi
Weather by CustomWeather, © 2016

See weather overviewHow to use our weather pages